#timestamp,LO_Frequency,Hit,StdDev 
1603240875.0,286047001.8,P
1603240875.9,286047001.8,P
1603240895.8,286047000.0,N
1603240915.6,286046998.6,N
1603240935.4,286046998.1,N
1603240955.3,286046998.7,N
1603240975.1,286046999.2,N
1603240995.9,286046998.7,N
1603241015.7,286046999.5,N
1603241035.5,286047000.8,N
1603241055.4,286046998.4,N
1603241075.2,286046998.5,N
1603241095.0,286047000.2,N
1603241096.0,286047000.2,N
1603241115.8,286047001.8,N
1603241135.6,286047003.6,N
1603241155.5,286047005.5,Y
1603241175.3,286047006.0,P
1603241195.1,286047003.0,N
1603241215.9,286047003.6,N
1603241235.7,286047004.4,N
1603241255.6,286047004.1,N
1603241275.4,286047005.9,Y
1603241295.2,286047004.3,P
1603241315.1,286047003.8,P
1603241316.0,286047003.8,P
1603241335.8,286047001.6,Y
1603241355.7,286046996.5,P
1603241375.5,286046999.4,N
1603241395.3,286046996.5,N
1603241415.2,286046994.9,N
1603241435.9,286046997.9,N
1603241455.7,286046995.0,N
1603241475.6,286046995.6,N
1603241495.4,286046995.8,N
1603241515.3,286046995.3,N
1603241535.1,286046996.8,N
1603241536.0,286046996.8,N
1603241555.8,286046997.4,N
1603241575.7,286046996.8,N
1603241595.5,286046996.9,N
1603241615.3,286046995.3,N
1603241635.2,286046998.0,N
1603241655.0,286046997.3,N
1603241655.9,286046997.3,N
1603241675.8,286046997.8,N
1603241695.6,286046997.3,N
1603241715.4,286046999.0,N
1603241735.3,286046997.7,N
1603241755.1,286046995.5,N
1603241775.9,286046997.3,N
1603241795.7,286046995.1,N
1603241815.5,286046995.8,N
1603241835.4,286046993.4,Y
1603241855.2,286046999.6,P
1603241875.0,286046994.9,P
1603241876.0,286046994.9,N
1603241895.8,286047001.0,N
1603241915.6,286047002.3,N
1603241935.5,286047000.2,N
1603241955.3,286047000.7,N
1603241975.1,286046998.3,N
1603241995.9,286047000.9,N
